This demonstration page uses our WeatherBlox Daily Observations layout. Learn more.

Left ArrowRight Arrow

30.00354, -91.81873

Hourly Observations for August 4, 2022

Temp ( °F °C ) Dew Point ( °F °C ) Humidity (%) Winds ( mph kmh ) Pressure ( in mb ) Visibility ( mi km ) Precip ( " mm )
12:53 am 00:53 Clear 74 23.3 72 22.2 94 94 ESE 3 6 29.99 1016 9 14 0.00 0.00
1:53 am 01:53 Clear 74 23.3 73 22.8 97 97 Calm 29.97 1015 10 16 0.00 0.00
2:53 am 02:53 Clear 74 23.3 72 22.2 94 94 SE 3 6 29.96 1015 10 16 0.00 0.00
3:53 am 03:53 Partly Cloudy 74 23.3 73 22.8 97 97 SSE 3 6 29.96 1014 9 14 0.00 0.00
4:53 am 04:53 Clear 74 23.3 72 22.2 94 94 Calm 29.97 1015 9 14 0.00 0.00
5:53 am 05:53 Clear with Mist and Fog 74 23.3 72 22.2 94 94 Calm 29.97 1015 6 10 0.00 0.00
6:53 am 06:53 Sunny with Mist and Fog 74 23.3 72 22.2 94 94 Calm 29.98 1015 6 10 0.00 0.00
7:53 am 07:53 Sunny 78 25.6 75 23.9 90 90 Calm 29.99 1016 10 16 0.00 0.00
8:53 am 08:53 Sunny 82 27.8 77 25 85 85 S 5 7 30.01 1016 10 16 0.00 0.00
9:53 am 09:53 Sunny 86 30 77 25 75 75 undefined N/A 30.00 1016 10 16 0.00 0.00
10:53 am 10:53 Mostly Sunny 90 32.2 75 23.9 62 62 undefined N/A 30.01 1016 10 16 0.00 0.00
11:17 am 11:17 Mostly Cloudy with Nearby Thunderstorms 84 28.9 72 22.2 67 67 WNW 10 17 30.02 1016 10 16 0.00 0.00
11:26 am 11:26 Cloudy 84 28.9 72 22.2 67 67 NW 10 17 30.02 1016 10 16 0.00 0.00
11:53 am 11:53 Cloudy with Light Rain 81 27.2 73 22.8 77 77 W 5 7 30.03 1017 10 16 0.00 0.00
12:19 pm 12:19 Mostly Cloudy with Nearby Thunderstorms 86 30 73 22.8 65 65 Calm 30.02 1016 10 16 0.00 0.00
12:34 pm 12:34 Partly Cloudy 87 30.6 74 23.3 65 65 undefined N/A 30.02 1016 10 16 0.00 0.00
12:53 pm 12:53 Mostly Cloudy 86 30 75 23.9 70 70 WSW 8 13 30.00 1016 10 16 0.00 0.00
1:53 pm 13:53 Mostly Sunny 85 29.4 73 22.8 68 68 S 7 11 30.01 1016 10 16 0.00 0.00
2:53 pm 14:53 Sunny 81 27.2 73 22.8 77 77 ESE 9 15 29.99 1016 10 16 0.00 0.00
3:02 pm 15:02 Partly Cloudy with Nearby Thunderstorms 81 27.2 72 22.2 74 74 SE 10 17 29.99 1015 10 16 0.00 0.00
3:17 pm 15:17 Mostly Cloudy with Thunderstorms 79 26.1 73 22.8 82 82 E 6 9 30.01 1016 10 16 0.01 0.25
3:32 pm 15:32 Cloudy with Nearby Thunderstorms 79 26.1 73 22.8 82 82 Calm 29.99 1015 10 16 0.02 0.51
3:53 pm 15:53 Partly Cloudy with Nearby Thunderstorms 79 26.1 74 23.3 85 85 N 9 15 29.99 1016 10 16 0.02 0.51
4:00 pm 16:00 Mostly Sunny 79 26.1 74 23.3 85 85 NNE 7 11 29.99 1015 10 16 0.00 0.00
4:53 pm 16:53 Sunny 82 27.8 74 23.3 77 77 E 3 6 29.99 1016 10 16 0.00 0.00
5:53 pm 17:53 Sunny 82 27.8 74 23.3 77 77 SE 7 11 29.99 1016 10 16 0.00 0.00
6:53 pm 18:53 Mostly Cloudy 81 27.2 74 23.3 79 79 Calm 29.98 1015 10 16 0.00 0.00
7:36 pm 19:36 Mostly Cloudy 80 26.7 74 23.3 82 82 S 6 9 29.99 1015 10 16 0.00 0.00
7:49 pm 19:49 Partly Cloudy 79 26 73 23 84 84 SSE 7 11 29.98 1015 10 16 0.00 0.00
7:53 pm 19:53 Mostly Sunny 79 26.1 74 23.3 85 85 SSE 6 9 29.98 1015 10 16 0.00 0.00
8:53 pm 20:53 Partly Cloudy 78 25.6 74 23.3 87 87 ESE 3 6 29.99 1016 10 16 0.00 0.00
9:53 pm 21:53 Clear 78 25.6 74 23.3 87 87 Calm 29.98 1015 10 16 0.00 0.00
10:53 pm 22:53 Clear 77 25 74 23.3 90 90 Calm 29.99 1016 10 16 0.00 0.00
11:53 pm 23:53 Clear 76 24.4 74 23.3 94 94 SE 3 6 30.00 1016 10 16 0.00 0.00

Powered by AerisWeather